Regional Weather Roundup
Issued by NWS

Home | Current Version | Previous Version | Graphics & Text | Print | Product List | Glossary On
Versions: 1 2 3 4 5 6 7 8 9 10 11 12 13 14 15 16 17 18 19 20 21 22 23 24 25 26 27 28 29 30 31 32 33 34 35 36 37 38 39 40 41 42 43 44 45 46 47 48 49 50
000
ASUS43 KMPX 301601
RWRMN
WEATHER ROUNDUP FOR MINNESOTA
NATIONAL WEATHER SERVICE TWIN CITIES/CHANHASSEN MN
1000 AM CST FRI JAN 30 2015


NOTE: "FAIR" INDICATES FEW OR NO CLOUDS BELOW 12,000 FEET WITH NO
SIGNIFICANT WEATHER AND/OR OBSTRUCTIONS TO VISIBILITY. N/A MEANS
CURRENT SKY AND/OR WEATHER CONDITIONS ARE NOT AVAILABLE.

MNZ060>063-068>070-301700-
   Twin Cities Metro

CITY           SKY/WX    TMP DP  RH WIND       PRES   REMARKS
TWIN CITIES    PTSUNNY   14   6  70 S7        30.53S WCI   4
ST PAUL        MOSUNNY   14   7  73 VRB3      30.55S
CRYSTAL        MOSUNNY   16   7  67 S6        30.51S WCI   7
BLAINE         PTSUNNY   14   9  79 CALM      30.52R
LAKEVILLE      MOSUNNY   14   9  79 S5        30.52R WCI   6
EDEN PRAIRIE   MOSUNNY   16   9  74 S7        30.51R WCI   6
SOUTH ST PAUL  PTSUNNY   15   7  71 S3        30.53S
LAKE ELMO      FAIR      12   5  73 S3        30.54R
$$
MNZ001>005-007-008-013>017-022>024-027-028-301700-
   Northwest Minnesota

CITY           SKY/WX    TMP DP  RH WIND       PRES   REMARKS
BEMIDJI        PTSUNNY    8   2  78 S9        30.34S WCI  -6
HALLOCK        PTSUNNY   12   7  79 S21       30.28F WCI  -6
ROSEAU         CLOUDY     7   1  78 S9        30.32S WCI  -7
WARROAD        LGT SNOW   5   0  78 S6        30.33F WCI  -6
THIEF RVR FALL CLOUDY    10   7  85 S14       30.30F WCI  -5
CROOKSTON      CLOUDY    14   9  79 S17       30.32F WCI  -3
FOSSTON        PTSUNNY    9   5  85 S14       30.33F WCI  -8
DETROIT LAKES  CLOUDY    12   9  85 S10       30.36F WCI  -1
MOORHEAD       CLOUDY    16  12  86 SE20      30.36F WCI  -1
PARK RAPIDS    CLOUDY    10   5  80 S10       30.36F WCI  -4
MAHNOMEN       CLOUDY    11   6  79 S10       30.35F WCI  -3
$$
MNZ006-009>011-018-025>026-301700-
   North Central Minnesota

CITY           SKY/WX    TMP DP  RH WIND       PRES   REMARKS
BAUDETTE       FLURRIES   2  -3  80 S6        30.33F WCI  -9
FLAG ISLAND    LGT SNOW   3  -2  78 S14       30.32S WCI -15
INTL FALLS     CLOUDY     0  -4  83 S3        30.37F
WASKISH        CLOUDY     7   1  78 CALM      30.35S
BIG FORK       MOSUNNY    5   0  78 S3        30.38R
LONGVILLE      CLOUDY     9   1  72 S9        30.39F WCI  -5
GRAND RAPIDS   MOSUNNY    5   1  85 S12       30.37F WCI -11
CRANE LAKE     PTSUNNY    0  -6  78 CALM      30.43F
ORR            CLOUDY     0  -6  78 CALM      30.36F
COOK           PTSUNNY    0  -4  85 SE3       30.39F
WALKER         PTSUNNY    7   2  82 S6        30.37F WCI  -4
$$
MNZ012-019>021-037-301700-
   Northeast Minnesota

CITY           SKY/WX    TMP DP  RH WIND       PRES   REMARKS
DULUTH         CLOUDY     4  -1  80 S3        30.41F
ELY            PTSUNNY    0  -6  78 CALM      30.40F
HIBBING        MOSUNNY    3  -3  76 SE5       30.40F WCI  -6
EVELETH        MOSUNNY    3   0  85 CALM      30.41F
DULUTH HARBOR  PTSUNNY    9   1  72 CALM      30.51F
TWO HARBORS    PTSUNNY    7   0  72 SW3       30.43S
SILVER BAY     PTSUNNY    9   0  66 S3        30.42S
GRAND MARAIS     N/A      9  -1  64 CALM      30.49S
G MARAIS ARPRT PTSUNNY    3  -8  60 W3        30.35F
$$
MNZ029>031-032-039>041-046>048-054>057-064-301700-
   West Central Minnesota

CITY           SKY/WX    TMP DP  RH WIND       PRES   REMARKS
FERGUS FALLS   CLOUDY    12   9  85 S14       30.42F WCI  -3
WHEATON        CLOUDY    16  12  86 SE14      30.40F WCI   1
MORRIS         CLOUDY    16  12  86 SE13      30.40F WCI   2
ALEXANDRIA     CLOUDY    12   8  84 S9        30.41F WCI   0
ELBOW LAKE     CLOUDY    13  10  88 SE13      30.39F WCI  -1
WADENA         MOSUNNY   10   7  85 S9        30.39F WCI  -2
GLENWOOD       FLURRIES  12  10  92 S9        30.42F WCI   0
APPLETON       CLOUDY    18  14  86 SE8       30.43F WCI   7
BENSON         CLOUDY    16  10  79 S8        30.44F WCI   5
ORTONVILLE     CLOUDY    18  14  86 SE12      30.40F WCI   5
MADISON        CLOUDY    27  21  80 S8        30.43S WCI  18
WILLMAR        FAIR      16   9  73 S5        30.47F WCI   9
$$
MNZ033>034-036-042>043-049>051-058-059-301700-
   Central Minnesota

CITY           SKY/WX    TMP DP  RH WIND       PRES   REMARKS
ST CLOUD       MOSUNNY   13   7  77 S9        30.49S WCI   1
SAUK CENTRE    FAIR      13   7  76 SE8       30.45S WCI   2
PAYNESVILLE    SUNNY     11   7  83 SE6       30.46F WCI   2
AITKIN         MOSUNNY   12   5  73 S9        30.42S WCI   0
PINE RIVER     PTSUNNY    9   3  78 S9        30.42F WCI  -5
BRAINERD       PTSUNNY   10   4  76 S10       30.43F WCI  -4
STAPLES        PTSUNNY   10   7  85 S9        30.41S WCI  -2
LONG PRAIRIE   FAIR      12   9  85 SE9       30.43F WCI   0
LITTLE FALLS   PTSUNNY   12   7  79 S8        30.45F WCI   1
LITCHFIELD     SUNNY     18  12  79 S5        30.48S WCI  11
BUFFALO        MOSUNNY   14   8  77 S6        30.51F WCI   5
MAPLE LAKE     MOSUNNY   15  11  82 S6        30.50S WCI   7
$$
MNZ037-044-045-052-053-301700-
   East Central Minnesota

CITY           SKY/WX    TMP DP  RH WIND       PRES   REMARKS
PRINCETON      PTSUNNY   12   9  85 S6        30.49F WCI   3
MORA           PTSUNNY   10   3  72 S7        30.51R WCI   0
CAMBRIDGE      PTSUNNY   12   1  62 SE5       30.49F WCI   4
RUSH CITY      CLOUDY     9   2  74 S6        30.52S WCI   0
MOOSE LAKE     CLOUDY     9   1  72 S5        30.45S WCI   0
HINCKLEY       FAIR      10   5  79 CALM      30.49R
CLOQUET        PTSUNNY    5   0  78 CALM      30.43S
MCGREGOR       PTSUNNY   10   5  79 S7        30.44S WCI   0
$$
MNZ071>073-080-081-089-090-097-098-301700-
   Southwest Minnesota

CITY           SKY/WX    TMP DP  RH WIND       PRES   REMARKS
MONTEVIDEO     CLOUDY    18  16  93 S8        30.46S WCI   7
GRANITE FALLS  CLOUDY    17  14  86 SE8       30.48S WCI   7
CANBY          CLOUDY    23  20  86 S5        30.43S WCI  17
MARSHALL       CLOUDY    21  16  79 SW10      30.45S WCI  10
REDWOOD FALLS  CLOUDY    17  11  77 S9        30.49S WCI   6
OLIVIA         MOSUNNY   16  10  79 S6        30.48S WCI   7
PIPESTONE      CLOUDY    21  19  93 SW18      30.39F WCI   6
WINDOM         PTSUNNY   18  14  86 S12       30.44F WCI   5
WORTHINGTON    CLOUDY    18  14  86 S10       30.44F WCI   6
JACKSON        SUNNY     19  14  79 S9        30.46F WCI   9
TRACY          CLOUDY    22  19  88 SW12      30.44S WCI  10
SLAYTON        CLOUDY    21  18  87 SW15G23   30.41F WCI   7
$$
MNZ065>067-074>077-082>085-091>093-301700-
   South Central Minnesota

CITY           SKY/WX    TMP DP  RH WIND       PRES   REMARKS
MANKATO        MOSUNNY   16   9  73 S6        30.51R WCI   7
NEW ULM        MOSUNNY   16   9  73 S3        30.50S
ST JAMES       SUNNY     18  12  79 S6        30.50S WCI   9
FAIRMONT       SUNNY     18  10  73 S12       30.48S WCI   5
GLENCOE        MOSUNNY   17  12  82 S9        30.49F WCI   6
FARIBAULT      MOSUNNY   16  10  79 SW6       30.51R WCI   7
OWATONNA       MOSUNNY   16  10  79 S6        30.50R WCI   7
WASECA         MOSUNNY   18  14  86 S6        30.52R WCI   9
ALBERT LEA     MOSUNNY   18  10  73 S9        30.48F WCI   6
$$
MNZ078>079-086>088-094>096-301700-
   Southeast Minnesota

CITY           SKY/WX    TMP DP  RH WIND       PRES   REMARKS
ROCHESTER      PTSUNNY   12   6  77 S7        30.49F WCI   1
RED WING       PTSUNNY   12   3  67 SE3       30.54R
STANTON        MOSUNNY   16   8  72 S6        30.52R WCI   7
DODGE CENTER   MOSUNNY   14   9  79 S7        30.49R WCI   4
WINONA         MOSUNNY   14   5  67 CALM      30.56F
AUSTIN         MOSUNNY   14   9  79 S7        30.49F WCI   4
PRESTON        CLOUDY    11   5  74 CALM      30.50F
$$
ABBREVIATIONS USED IN REMARKS
   TC - TEMPERATURES IN CELSIUS
  WCI - WIND CHILL INDEX
   HX - HEAT INDEX
  VSB - VISIBILITY
$$


USA.gov is the U.S. government's official web portal to all federal, state and local government web resources and services.